[[{"header":{"parameterUnit":"m.s-1","parameterCategory":1,"la1":30.2991,"la2":30.254,"lo1":-89.0895,"lo2":-89.0444,"dy":0.0017,"dx":0.0017,"nx":28,"ny":28,"refTime":"2025-07-29T03:00:00:Z","depth":0,"parameterNumber":2,"parameterNumberName":"U-component_of_WINDS"},"data":[0,0,0,0,0,0,0,0,0,0,0,0,0,0,0,0,0,0,0,0,0,0,0,0,0,0,0,0,0,0,0,0,0,0,0,0,0,0,0,0,0,0,0,0,0,0,0,0,0,0,0,0,0,0,0,0,0,0,2.9776,2.9775,0,2.9694,2.9693,2.9692,2.9573,2.9571,2.9569,2.9567,2.9487,2.9487,2.9487,0,0,0,0,0,0,0,0,0,0,0,0,0,2.9837,2.9836,2.9776,2.9775,2.9774,2.9694,2.9693,2.9692,2.9573,2.9571,2.9568,2.9566,2.9487,2.9487,2.9487,0,0,0,0,0,0,0,0,0,0,0,0,0,2.9788,2.9836,2.9777,2.9705,2.9698,2.9694,2.9693,2.9691,2.9574,2.9571,2.9567,2.9564,2.9487,2.9487,2.9486,2.9547,0,0,2.9486,2.9485,0,0,0,0,0,0,0,0,2.9791,2.9786,2.9717,2.971,2.9702,2.964,2.9685,2.9643,2.9574,2.9621,2.9567,2.9563,2.9541,2.9536,2.9527,2.9543,2.954,2.9486,2.9485,2.9485,2.9485,0,0,0,0,0,0,0,2.9795,2.9789,2.9744,2.9716,2.9707,2.9679,2.9669,2.9676,2.96,2.9617,2.9608,2.96,2.9536,2.9528,2.9525,2.9539,2.9486,2.9485,2.9485,2.9485,2.9601,2.9604,0,0,0,0,0,0,2.9808,2.9793,2.9746,2.9741,2.974,2.9681,2.9669,2.9663,2.9599,2.9586,2.9602,2.9594,2.953,2.9525,2.9521,2.9588,2.9485,2.9485,2.9485,2.9598,2.9602,2.9605,0,0,0,0,0,0,2.981,2.9805,2.975,2.9764,2.9755,2.9683,2.9677,2.9663,2.9655,2.9588,2.9574,2.9607,2.9527,2.9522,2.9541,2.9584,2.9485,2.9485,2.9594,2.9599,2.9604,2.9723,0,0,0,0,0,0,2.9812,2.9806,2.9827,2.9766,2.9755,2.977,2.968,2.9664,2.9654,2.9643,2.9589,2.9578,2.9524,2.9542,2.9541,2.9582,2.9484,2.959,2.9596,2.9602,2.9715,2.9731,2.9745,0,0,0,0,0,2.9814,2.9865,2.9829,2.9824,2.9779,2.9772,2.9766,2.9703,2.9658,2.9679,2.9637,2.9579,2.958,2.9545,2.9543,2.9584,2.9587,2.9595,2.9602,2.9708,2.9728,2.9745,0,0,0,0,0,0,2.9934,2.9855,2.9815,2.9846,2.9817,2.9752,2.9777,2.9726,2.971,2.97,2.9624,2.9613,2.9642,2.9615,2.9578,2.964,2.9575,2.9582,2.9656,2.9675,2.969,2.9696,2.9484,0,0,0,0,0,2.9964,2.9964,2.9895,2.993,2.9917,2.985,2.9845,2.9798,2.9765,2.9753,2.9711,2.9683,2.9677,2.9674,2.9665,2.971,2.9698,2.9738,2.9753,2.9766,2.9773,2.9796,2.9813,2.963,2.9629,2.9629,0,0,3.0026,2.9983,2.9988,2.9953,2.9924,2.9927,2.984,2.9847,2.9848,2.9754,2.9769,2.9739,2.9702,2.9736,2.9748,2.9714,2.9821,2.9775,2.9786,2.9786,2.9805,2.9823,2.9838,2.9635,2.9634,2.9633,0,0,3.0141,3.0108,3.0133,3.0106,3.0064,3.0019,3.0026,2.9969,2.9945,2.9959,2.9888,2.9891,2.9881,2.9858,2.9845,2.9953,2.99,2.9952,3.0032,3.0055,3.007,3.0082,3.0121,3.0136,2.996,2.996,2.996,0,3.0224,3.0223,3.0153,3.0164,3.0151,3.0065,3.0091,3.0069,3.0027,3.0021,2.9983,2.997,2.9939,2.9966,2.9993,2.9985,2.9991,2.9958,3.0073,3.0085,3.0095,3.0132,3.0147,2.9966,2.9966,2.9965,2.9964,0,3.0327,3.0329,3.0354,3.0314,3.0305,3.0324,3.0258,3.0257,3.0212,3.0173,3.0189,3.0149,3.0131,3.0134,3.009,3.0155,3.0135,3.0087,3.0019,3.0121,3.0154,3.0167,2.9976,2.9974,2.9972,2.997,0,0,3.0514,3.0436,3.0446,3.0427,3.0375,3.0376,3.0392,3.0372,3.0373,3.0348,3.036,3.0354,3.0309,3.0294,3.0248,3.0269,3.0357,3.0217,3.0215,3.0245,3.0428,3.0465,3.0482,3.0322,3.0325,3.0326,3.0431,0,3.0619,3.0639,3.0577,3.0614,3.0615,3.0534,3.0547,3.0518,3.0482,3.0479,3.0439,3.0436,3.0376,3.0367,3.0384,3.0343,3.0393,3.0335,3.0334,3.0335,3.0346,3.0499,3.0538,3.0639,3.0443,3.0445,3.0447,0,3.0743,3.0723,3.0759,3.0706,3.0704,3.0717,3.0695,3.0692,3.0658,3.063,3.0615,3.0561,3.0574,3.0511,3.0529,3.0491,3.0487,3.0468,3.047,3.0467,3.0397,3.0501,3.0669,3.0685,3.0466,3.0465,3.0464,0,3.0876,3.0858,3.0878,3.0864,3.0802,3.0814,3.0789,3.0751,3.0744,3.0725,3.072,3.0704,3.0695,3.0685,3.0628,3.0587,3.0654,3.0585,3.0633,3.0635,3.0651,3.065,3.0821,3.0649,3.0648,3.0648,3.0648,0,3.0999,3.1025,3.0937,3.0949,3.0976,3.0906,3.0935,3.0902,3.087,3.0876,3.0806,3.0813,3.0738,3.0738,3.0694,3.0717,3.0713,3.0692,3.0681,3.0699,3.0702,3.0695,3.0687,3.0652,3.0651,3.065,3.065,0,3.1153,3.1094,3.1111,3.105,3.1036,3.1059,3.1008,3.1018,3.0977,3.0986,3.0984,3.0921,3.0917,3.0859,3.0844,3.0814,3.0855,3.083,3.0866,3.0858,3.0909,3.0905,3.1081,3.1101,3.0917,3.0919,3.092,0,3.1235,3.1253,3.1195,3.1193,3.1171,3.1169,3.116,3.1092,3.1087,3.105,3.1065,3.1055,3.1043,3.1042,3.0996,3.0984,3.0958,3.1021,3.0956,3.0974,3.096,3.0959,3.0961,3.1035,3.1037,3.1039,3.104,0,3.1388,3.1358,3.1348,3.1329,3.132,3.1302,3.128,3.1283,3.1208,3.1206,3.12,3.1191,3.1175,3.1167,3.1147,3.1123,3.107,3.1061,3.1071,3.109,3.1111,3.1101,3.0904,3.1057,3.1056,3.1054,3.1053,3.1053,3.1509,3.1521,3.1482,3.1473,3.1449,3.143,3.1436,3.1396,3.1389,3.1369,3.133,3.1331,3.1298,3.1265,3.1246,3.1247,3.1215,3.123,3.1234,3.1239,3.1249,3.1111,3.1243,3.1243,3.1242,3.1242,3.1241,0,3.1658,3.1629,3.1622,3.1592,3.1586,3.1535,3.1508,3.1507,3.1508,3.148,3.147,3.1465,3.1457,3.141,3.1397,3.1407,3.1383,3.1406,3.1405,3.14,3.1278,3.1271,3.1426,3.1426,3.1426,3.1426,3.1426,3.1426,3.1735,3.1753,3.172,3.1726,3.1697,3.1696,3.1685,3.1667,3.1645,3.1641,3.1634,3.1603,3.1568,3.1553,3.1544,3.153,3.1529,3.1561,3.154,3.1427,3.1409,3.1392,3.1384,3.1561,3.1561,3.1662,3.1663,3.1663]},{"header":{"parameterUnit":"m.s-1","parameterCategory":1,"la1":30.2991,"la2":30.254,"lo1":-89.0895,"lo2":-89.0444,"dy":0.0017,"dx":0.0017,"nx":28,"ny":28,"refTime":"2025-07-29T03:00:00:Z","depth":0,"parameterNumber":3,"parameterNumberName":"V-component_of_WINDS"},"data":[0,0,0,0,0,0,0,0,0,0,0,0,0,0,0,0,0,0,0,0,0,0,0,0,0,0,0,0,0,0,0,0,0,0,0,0,0,0,0,0,0,0,0,0,0,0,0,0,0,0,0,0,0,0,0,0,0,0,2.2895,2.2896,0,2.2997,2.2998,2.2999,2.3033,2.3032,2.3032,2.3032,2.3133,2.3136,2.3139,0,0,0,0,0,0,0,0,0,0,0,0,0,2.2726,2.2729,2.2894,2.2896,2.2897,2.2996,2.2998,2.2999,2.3033,2.3032,2.3032,2.3031,2.3132,2.3136,2.314,0,0,0,0,0,0,0,0,0,0,0,0,0,2.281,2.273,2.2894,2.2926,2.293,2.2996,2.2998,2.3,2.3033,2.3032,2.3032,2.3031,2.3131,2.3135,2.314,2.3181,0,0,2.3154,2.3156,0,0,0,0,0,0,0,0,2.2806,2.2817,2.292,2.2924,2.2928,2.3001,2.2976,2.306,2.3033,2.2994,2.3032,2.3031,2.309,2.3098,2.3118,2.3186,2.319,2.3155,2.3157,2.3159,2.3161,0,0,0,0,0,0,0,2.28,2.2812,2.2935,2.2921,2.2927,2.2934,2.2945,2.2992,2.3044,2.2997,2.3,2.3012,2.3092,2.3114,2.3121,2.3192,2.3155,2.3159,2.3162,2.3163,2.3299,2.3299,0,0,0,0,0,0,2.2789,2.2807,2.2932,2.2938,2.2864,2.2938,2.295,2.2979,2.3044,2.3053,2.3012,2.3013,2.3106,2.3115,2.3124,2.3177,2.3159,2.3164,2.3166,2.3298,2.3299,2.33,0,0,0,0,0,0,2.2785,2.28,2.2927,2.2873,2.289,2.2941,2.2973,2.2981,2.3003,2.3055,2.3064,2.3025,2.3106,2.3118,2.3167,2.3181,2.3166,2.317,2.3297,2.3298,2.3299,2.3282,0,0,0,0,0,0,2.278,2.2798,2.2815,2.2874,2.2893,2.2969,2.2974,2.2983,2.3011,2.3013,2.3069,2.3078,2.3106,2.316,2.3172,2.3187,2.3174,2.3296,2.3297,2.3299,2.3282,2.3283,2.3284,0,0,0,0,0,2.2774,2.2806,2.2816,2.2831,2.2916,2.297,2.2981,2.3014,2.3012,2.3029,2.3062,2.3076,2.3178,2.3165,2.3178,2.3195,2.3295,2.3297,2.3299,2.3282,2.3283,2.3284,0,0,0,0,0,0,2.2747,2.2814,2.2826,2.2878,2.2918,2.2976,2.2998,2.3014,2.3055,2.3055,2.3093,2.3105,2.3151,2.3178,2.3163,2.3238,2.3237,2.3241,2.3219,2.3221,2.3222,2.3214,2.3178,0,0,0,0,0,2.2747,2.2787,2.2843,2.2883,2.2903,2.2947,2.2972,2.2994,2.3036,2.3053,2.309,2.3131,2.3171,2.3198,2.3238,2.3286,2.3298,2.3304,2.3305,2.3305,2.3309,2.3336,2.3339,2.3305,2.3305,2.3305,0,0,2.2747,2.2789,2.2812,2.2879,2.2913,2.2952,2.2961,2.3002,2.3032,2.3059,2.3108,2.3137,2.3184,2.3233,2.3256,2.3256,2.3321,2.3308,2.3308,2.3311,2.3338,2.3341,2.3344,2.3307,2.3307,2.3306,0,0,2.2769,2.2804,2.2842,2.2876,2.2927,2.2956,2.2965,2.302,2.304,2.309,2.3112,2.3147,2.3216,2.3249,2.3275,2.3308,2.3322,2.332,2.3325,2.335,2.3353,2.3356,2.3367,2.3371,2.3323,2.3323,2.3323,0,2.2763,2.2824,2.2859,2.2899,2.2928,2.2955,2.2993,2.3024,2.3085,2.3103,2.3103,2.3192,2.3225,2.3282,2.329,2.331,2.3321,2.3314,2.335,2.3353,2.3356,2.3367,2.3372,2.3323,2.3323,2.3323,2.3323,0,2.2814,2.2855,2.2879,2.2939,2.297,2.3009,2.3049,2.3076,2.3094,2.3123,2.3173,2.3215,2.3264,2.3279,2.3297,2.3338,2.3337,2.3343,2.3342,2.3358,2.3369,2.3374,2.3322,2.3322,2.3322,2.3322,0,0,2.2821,2.2899,2.2907,2.2935,2.2993,2.3026,2.3065,2.3114,2.3137,2.3178,2.3211,2.327,2.3276,2.3305,2.3327,2.335,2.3373,2.3353,2.3355,2.3355,2.342,2.3415,2.342,2.3382,2.3383,2.3384,2.3416,0,2.2849,2.2923,2.2955,2.3013,2.3052,2.3078,2.3112,2.3151,2.3179,2.3215,2.3245,2.3286,2.3291,2.3309,2.3332,2.3365,2.3386,2.3363,2.3414,2.3415,2.3401,2.3426,2.3421,2.3449,2.3421,2.3422,2.3422,0,2.2893,2.2935,2.2997,2.3051,2.3068,2.3099,2.3146,2.3181,2.3225,2.3243,2.3276,2.3297,2.3338,2.3335,2.3392,2.3375,2.3398,2.3417,2.3419,2.3425,2.342,2.3433,2.3459,2.3463,2.343,2.3429,2.3428,0,2.2892,2.2964,2.301,2.3033,2.3097,2.3117,2.3145,2.3188,2.3216,2.3257,2.3275,2.332,2.3344,2.3378,2.341,2.3405,2.3465,2.3463,2.3481,2.348,2.3492,2.3491,2.3522,2.3506,2.3506,2.3506,2.3506,0,2.292,2.2957,2.3011,2.3039,2.3081,2.3117,2.3157,2.3186,2.3225,2.3259,2.3284,2.3315,2.3356,2.3392,2.3418,2.3461,2.3472,2.3488,2.3494,2.3486,2.3484,2.3501,2.35,2.3507,2.3507,2.3507,2.3506,0,2.2926,2.2964,2.3016,2.3072,2.3087,2.3116,2.3163,2.3191,2.322,2.3263,2.3275,2.332,2.3364,2.3399,2.3456,2.3473,2.3519,2.3526,2.3504,2.3507,2.3522,2.352,2.3566,2.3574,2.3552,2.3552,2.3552,0,2.2942,2.2971,2.3031,2.3056,2.3083,2.3123,2.3151,2.3188,2.3216,2.3269,2.329,2.3336,2.3374,2.3443,2.348,2.3524,2.3532,2.3545,2.3539,2.3529,2.3532,2.353,2.3533,2.3546,2.3546,2.3546,2.3546,0,2.2966,2.2983,2.3024,2.3071,2.3104,2.3142,2.3181,2.32,2.3243,2.3273,2.3319,2.3349,2.3407,2.3452,2.35,2.3527,2.3543,2.3547,2.3554,2.3546,2.3532,2.3539,2.3506,2.3546,2.3546,2.3546,2.3546,2.3546,2.2978,2.3005,2.3051,2.3095,2.3128,2.3164,2.3193,2.3226,2.3265,2.3316,2.3335,2.3382,2.3425,2.349,2.3518,2.3554,2.3556,2.3565,2.3567,2.3569,2.3568,2.3526,2.3563,2.3563,2.3563,2.3563,2.3563,0,2.3003,2.3034,2.3074,2.3128,2.3163,2.3176,2.322,2.3247,2.3288,2.3328,2.3365,2.3417,2.3461,2.3501,2.3547,2.3568,2.3577,2.3579,2.3578,2.3584,2.3564,2.3554,2.3571,2.3571,2.3571,2.3571,2.3571,2.3571,2.302,2.3067,2.3089,2.3152,2.3183,2.323,2.3253,2.3286,2.3318,2.3375,2.3412,2.3438,2.3478,2.3527,2.3567,2.3578,2.3593,2.3593,2.3606,2.3586,2.3585,2.3584,2.3575,2.3596,2.3596,2.3623,2.3623,2.3623]}]]